Location: Doschendorf
(50.0069°N, 11.0602°E)
Time: 06:01:58
(UTC+00:00)

Cosmos 1743 Rocket - Pass Details

Date: 17 November 2019
Orbit: 604 x 633 km, 82.6° (Epoch: 09 December)

Event Time Altitude Azimuth Distance (km) Brightness Sun altitude
Rises 16:12:58 0° 347° (NNW) 2,880 6.9 -7.1°
Reaches altitude 10° 16:15:12 10° 345° (NNW) 1,974 6.1 -7.5°
Maximum altitude 16:19:31 66° 264° (W) 672 4.0 -8.1°
Drops below altitude 10° 16:23:51 10° 182° (S) 1,972 6.4 -8.8°
Sets 16:26:04 0° 180° (S) 2,877 7.2 -9.1°
